"Pseudo-MPEC" for HirtKX2

Created 2023 Jun 14 10:22:08 UT using Find_Orb

Click here for an explanation of pseudo-MPECs

 
 Astrometry: 
     HirtKX2*KC2023 05 23p3DxBw`6SKVRly*UD+yvDJ700Astrometrya4y[ZJHYHkVd+FqVVM49
     HirtKX2 KC2023 05 23#U-WTl0P7[g!kredacted;)iEdJog)q29click5=:,MpcOp,Z=dTM49
     HirtKX2 KC2023 05 23Q,/w5yBS#k@`bRywom]vFKDp1X3NvAY(QV=Pxq-ikmhere+DF(m:M49
     HirtKX2 KC2023 05 24?jX?;V6'h#UdEhmPEdZw5gA'ZL%/rtforN,explanationH289*;M49
     HirtKX2 KC2023 05 24HI:6pj5Z$3pkTQ%V`iN4rEA@W]XpBsk4.aXDu]WE(1vbkRH[[\SWM49

Station data:
(M49) IAS Remote Observatory, Hakos  (S23.236549 E16.361720)  Namibia.

Orbital elements:  HirtKX2
   Perihelion 2023 May 22.41871 +/- 23.2 TT = 10:02:56 (JD 2460086.91871)
Epoch 2023 May 24.0 TT = JDT 2460088.5   Earth MOID: 0.2342   Ma: 0.0329
M   0.42120910 +/- 8                (J2000 ecliptic)             AutoNEOCP
n   0.26637020 +/- 0.123            Peri.  278.71469 +/- 53
a   2.39228150 +/- 0.734            Node   318.17096 +/- 30
e   0.4988633 +/- 0.13              Incl.    7.48096 +/- 1.9
P   3.70                   H 22.13  G  0.15   U 11.3  SR
q 1.19886002 +/- 0.0607    Q 3.58570298 +/- 1.56
From 5 observations 2023 May 23-24 (28.1 hr); mean residual 0".41
Residuals in arcseconds: 
230523 M49  .13+  .00     230523 M49  .10-  .27+    230524 M49  .68-  .51+    
230523 M49  .06-  .25-    230524 M49  .71+  .53-    

Ephemerides (geocentric):
Date (UTC) HH   RA             Dec           delta  r     elong  mag " sig PA
---- --------  ------------   ------------  ------ ------ -----  --- --------
2023 06 14 10  14 46 04.829   -49 39 26.75  .26270 1.2255 138.8 21.1 208' 170
2023 06 14 11  14 46 17.526   -49 38 54.60  .26277 1.2256 138.8 21.1 209' 170
2023 06 14 12  14 46 30.221   -49 38 22.33  .26285 1.2257 138.8 21.1 210' 170
2023 06 14 13  14 46 42.915   -49 37 49.94  .26292 1.2258 138.8 21.1 210' 170
2023 06 14 14  14 46 55.607   -49 37 17.44  .26300 1.2259 138.8 21.1 211' 170
2023 06 14 15  14 47 08.297   -49 36 44.83  .26308 1.2260 138.8 21.1 212' 170
2023 06 14 16  14 47 20.985   -49 36 12.10  .26315 1.2261 138.8 21.1 213' 170
2023 06 14 17  14 47 33.672   -49 35 39.25  .26323 1.2262 138.9 21.1 214' 170
2023 06 14 18  14 47 46.357   -49 35 06.29  .26330 1.2263 138.9 21.1 214' 170
2023 06 14 19  14 47 59.041   -49 34 33.21  .26338 1.2264 138.9 21.1 215' 169
2023 06 14 20  14 48 11.722   -49 34 00.02  .26346 1.2265 138.9 21.1 216' 169
2023 06 14 21  14 48 24.402   -49 33 26.71  .26353 1.2266 138.9 21.1 217' 169
2023 06 14 22  14 48 37.079   -49 32 53.29  .26361 1.2267 138.9 21.1 218' 169
2023 06 14 23  14 48 49.755   -49 32 19.76  .26369 1.2268 138.9 21.1 218' 169
2023 06 15 00  14 49 02.429   -49 31 46.11  .26377 1.2269 138.9 21.1 219' 169
2023 06 15 01  14 49 15.101   -49 31 12.34  .26384 1.2270 138.9 21.1 220' 169
2023 06 15 02  14 49 27.770   -49 30 38.47  .26392 1.2271 139.0 21.1 221' 169
2023 06 15 03  14 49 40.438   -49 30 04.47  .26400 1.2272 139.0 21.1 222' 169
2023 06 15 04  14 49 53.104   -49 29 30.37  .26408 1.2273 139.0 21.1 223' 169
2023 06 15 05  14 50 05.767   -49 28 56.15  .26416 1.2273 139.0 21.1 223' 169
2023 06 15 06  14 50 18.428   -49 28 21.82  .26424 1.2274 139.0 21.1 224' 169
2023 06 15 07  14 50 31.088   -49 27 47.37  .26432 1.2275 139.0 21.1 225' 169
2023 06 15 08  14 50 43.745   -49 27 12.81  .26439 1.2276 139.0 21.1 226' 169
2023 06 15 09  14 50 56.399   -49 26 38.14  .26447 1.2277 139.0 21.1 227' 169
2023 06 15 10  14 51 09.052   -49 26 03.36  .26455 1.2278 139.0 21.1 228' 169
2023 06 15 11  14 51 21.702   -49 25 28.46  .26463 1.2279 139.1 21.1 228' 169
2023 06 15 12  14 51 34.350   -49 24 53.45  .26471 1.2280 139.1 21.1 229' 169
2023 06 15 13  14 51 46.995   -49 24 18.33  .26479 1.2281 139.1 21.1 230' 168
2023 06 15 14  14 51 59.638   -49 23 43.10  .26487 1.2282 139.1 21.1 231' 168
2023 06 15 15  14 52 12.279   -49 23 07.75  .26495 1.2283 139.1 21.1 232' 168
2023 06 15 16  14 52 24.917   -49 22 32.29  .26503 1.2284 139.1 21.1 233' 168
2023 06 15 17  14 52 37.552   -49 21 56.72  .26512 1.2285 139.1 21.1 233' 168
2023 06 15 18  14 52 50.186   -49 21 21.04  .26520 1.2286 139.1 21.1 234' 168
2023 06 15 19  14 53 02.816   -49 20 45.25  .26528 1.2287 139.1 21.1 235' 168
2023 06 15 20  14 53 15.444   -49 20 09.35  .26536 1.2288 139.2 21.1 236' 168
2023 06 15 21  14 53 28.070   -49 19 33.34  .26544 1.2289 139.2 21.1 237' 168
2023 06 15 22  14 53 40.692   -49 18 57.21  .26552 1.2290 139.2 21.1 238' 168
2023 06 15 23  14 53 53.312   -49 18 20.98  .26560 1.2291 139.2 21.1 238' 168
2023 06 16 00  14 54 05.930   -49 17 44.63  .26569 1.2292 139.2 21.1 239' 168
2023 06 16 01  14 54 18.544   -49 17 08.18  .26577 1.2293 139.2 21.1 240' 168
2023 06 16 02  14 54 31.156   -49 16 31.61  .26585 1.2294 139.2 21.1 241' 168
2023 06 16 03  14 54 43.765   -49 15 54.94  .26593 1.2295 139.2 21.1 242' 168
2023 06 16 04  14 54 56.372   -49 15 18.15  .26602 1.2296 139.2 21.1 243' 168
2023 06 16 05  14 55 08.975   -49 14 41.26  .26610 1.2297 139.3 21.1 244' 168
2023 06 16 06  14 55 21.576   -49 14 04.25  .26618 1.2298 139.3 21.1 244' 168
2023 06 16 07  14 55 34.173   -49 13 27.14  .26627 1.2299 139.3 21.1 245' 167
2023 06 16 08  14 55 46.768   -49 12 49.92  .26635 1.2300 139.3 21.1 246' 167
2023 06 16 09  14 55 59.360   -49 12 12.59  .26644 1.2302 139.3 21.1 247' 167